DOVE PIONEER (43163 NORAD) Tracking and Keplerian Element Data

This shows tracking and keplerian element data for the satellite.

Feedback or suggestion? Click here.




ElementValue
Catalog43163
NameDOVE PIONEER
Epoch Orbit451
Epoch Day50.15957883
Epoch Year2018
RAAN110.7242
Inclination82.9113
Eccentricity0.0171426
Argument of Perigee115.0826
Mean Anonmoly246.8357
Mean Motion15.5389452
Decay Rate0.0002938
L11 43163U 18010A 18050.15957883 .00029380 -10104-5 23340-3 0 9996
L22 43163 82.9113 110.7242 0171426 115.0826 246.8357 15.53894520 4511



Live tracking and technical data element details for DOVE PIONEER (NORAD 43163). DOVE PIONEER can be tracked NOW for your location showing map with azimuth and elevation plus other details from your city location.







IsCatalogInMostPopularTable: catalog: 43163, numindb: 1079
Update: records affected: 1



GetName: 43163 DOVE PIONEER

Hit Count: updated at: Mon, 28 Apr 2025 09:51:36 GMT